Regional Weather Roundup
Issued by NWS

Home | Current Version | Previous Version | Graphics & Text | Print | Product List | Glossary On
Versions: 1 2 3 4 5 6 7 8 9 10 11 12 13 14 15 16 17 18 19 20 21 22 23 24 25 26 27 28 29 30 31 32 33 34 35 36 37 38 39 40 41 42 43 44 45 46 47 48 49 50
000
ASUS43 KMPX 272001
RWRMN
WEATHER ROUNDUP FOR MINNESOTA
NATIONAL WEATHER SERVICE TWIN CITIES/CHANHASSEN MN
300 PM CDT WED JUL 27 2016


NOTE: "FAIR" INDICATES FEW OR NO CLOUDS BELOW 12,000 FEET WITH NO
SIGNIFICANT WEATHER AND/OR OBSTRUCTIONS TO VISIBILITY. N/A MEANS
CURRENT SKY AND/OR WEATHER CONDITIONS ARE NOT AVAILABLE.

MNZ060>063-068>070-272100-
   Twin Cities Metro

CITY           SKY/WX    TMP DP  RH WIND       PRES   REMARKS
TWIN CITIES    LGT RAIN  76  69  79 VRB5      29.92F
ST PAUL        CLOUDY    71  64  78 NE5       29.92F
CRYSTAL        CLOUDY    76  68  76 MISG      29.92R
BLAINE         DRIZZLE   72  70  94 S6        29.93R
LAKEVILLE      CLOUDY    77  70  78 SW5       29.93S
EDEN PRAIRIE   LGT RAIN  76  69  79 SW10      29.92R
LAKEVILLE      CLOUDY    77  70  78 SW5       29.93S
SOUTH ST PAUL  CLOUDY    75  66  73 N3        29.92S
LAKE ELMO      TSTM      70  63  78 SE12G21   29.96R
$$
MNZ001>005-007-008-013>017-022>024-027-028-272100-
   Northwest Minnesota

CITY           SKY/WX    TMP DP  RH WIND       PRES   REMARKS
BEMIDJI        PTSUNNY   73  63  68 E12       30.03F
HALLOCK        SUNNY     75  61  60 N14       30.07F
ROSEAU         SUNNY     77  64  65 E10G17    30.06F
WARROAD        SUNNY     75  63  64 NE13      30.07F
THIEF RVR FALL PTSUNNY   75  60  59 N14       30.04F
CROOKSTON      MOSUNNY   77  61  57 N12G17    30.05S
FOSSTON        SUNNY     77  57  50 NW10      30.03F
DETROIT LAKES  SUNNY     77  57  50 N10       30.04F
MOORHEAD       SUNNY     75  61  60 N16G22    30.04F
PARK RAPIDS    PTSUNNY   76  61  59 N10G17    30.02F
MAHNOMEN       FAIR      77  60  55 N9G16     30.03S
$$
MNZ006-009>011-018-025>026-272100-
   North Central Minnesota

CITY           SKY/WX    TMP DP  RH WIND       PRES   REMARKS
BAUDETTE       PTSUNNY   76  57  51 NE5       30.05S
FLAG ISLAND    MOSUNNY   72  55  56 N13       30.07F
INTL FALLS     MOSUNNY   75  56  51 NE3       30.05S
WASKISH        CLOUDY    75  61  60 NE8       30.03S
BIG FORK       MOSUNNY   72  63  73 E6        30.05F
LONGVILLE      MOSUNNY   72  64  78 NE6       30.01F
GRAND RAPIDS   CLOUDY    69  61  75 VRB6      30.04F
CRANE LAKE     CLOUDY    72  57  60 N2        30.06S
ORR            CLOUDY    72  57  60 CALM      30.03F
COOK           CLOUDY    68  64  88 CALM      30.06S
WALKER         CLOUDY    69  63  80 N3        30.03S
$$
MNZ012-019>021-037-272100-
   Northeast Minnesota

CITY           SKY/WX    TMP DP  RH WIND       PRES   REMARKS
DULUTH         LGT RAIN  65  57  75 E13       30.03S
ELY            CLOUDY    70  59  68 NE5       30.05S
HIBBING        LGT RAIN  65  61  87 E6        30.04F
EVELETH        CLOUDY    65  61  85 E6        30.05F
DULUTH HARBOR  DRIZZLE   63  59  88 NE17      30.03F
TWO HARBORS    DRIZZLE   64  59  82 NE9       30.02F
SILVER BAY     DRIZZLE   61  59  94 NE5       30.05F
GRAND MARAIS     N/A     66  56  70 NE8       30.05
G MARAIS ARPRT CLOUDY    64  54  68 SE7       30.09R
$$
MNZ029>031-032-039>041-046>048-054>057-064-272100-
   West Central Minnesota

CITY           SKY/WX    TMP DP  RH WIND       PRES   REMARKS
FERGUS FALLS   SUNNY     77  61  57 N16G24    30.02S
WHEATON        SUNNY     81  63  54 N10G18    30.03F
MORRIS         MOSUNNY   81  64  57 N16       29.99S
ALEXANDRIA     PTSUNNY   77  64  64 NW13      30.01F
ELBOW LAKE     PTSUNNY   76  65  67 N8G18     30.01S
WADENA         CLOUDY    72  64  78 N7        30.01F
GLENWOOD       MOSUNNY   75  64  69 NW8       30.00S
APPLETON       MOSUNNY   81  64  57 N12G18    29.99S
BENSON         MOSUNNY   81  64  57 N16       29.98S
ORTONVILLE     MOSUNNY   79  64  61 N15       30.00F
MADISON        SUNNY     79  64  61 N14G21    29.99F
WILLMAR        FAIR      79  66  65 NW12      29.98S
$$
MNZ033>034-036-042>043-049>051-058-059-272100-
   Central Minnesota

CITY           SKY/WX    TMP DP  RH WIND       PRES   REMARKS
ST CLOUD       CLOUDY    75  67  76 N10G17    29.96S
SAUK CENTRE    MOCLDY    74  65  72 N12       29.99S
PAYNESVILLE    CLOUDY    75  66  73 N8        29.97S
AITKIN         CLOUDY    72  63  73 NE8       29.98F
PINE RIVER     CLOUDY    72  63  73 N6        30.03F
BRAINERD       CLOUDY    71  65  81 N7        29.99F
STAPLES        CLOUDY    73  63  68 N7        30.01S
LONG PRAIRIE   FAIR      73  63  68 NW5       30.00S
LITTLE FALLS   PTSUNNY   72  63  73 NW7       29.98S
LITCHFIELD     MOSUNNY   79  70  73 N10       29.96R
BUFFALO        CLOUDY    71  66  85 N12       29.97R
MAPLE LAKE     CLOUDY    72  69  89 NE7       29.98R
HUTCHINSON     SUNNY     80  68  66 NW7       29.96S
$$
MNZ037-044-045-052-053-272100-
   East Central Minnesota

CITY           SKY/WX    TMP DP  RH WIND       PRES   REMARKS
PRINCETON      CLOUDY    70  66  88 N3        29.98R
MORA           DRIZZLE   64  63  94 N3        29.99R
CAMBRIDGE      TSTM      70  63  78 CALM      29.95F
RUSH CITY      TSTM      65  63  94 CALM      29.97R
MOOSE LAKE     DRIZZLE   61  59  94 NE5       29.99F
HINCKLEY       LGT RAIN  64  64 100 NE6       29.99R
CLOQUET        LGT RAIN  64  61  88 E9        30.02F
MCGREGOR       CLOUDY    68  63  83 E13       30.00F
$$
MNZ071>073-080-081-089-090-097-098-272100-
   Southwest Minnesota

CITY           SKY/WX    TMP DP  RH WIND       PRES   REMARKS
MONTEVIDEO     MOSUNNY   81  68  65 N12G21    30.00S
GRANITE FALLS  PTSUNNY   80  67  65 NW13      29.99F
CANBY          PTSUNNY   79  65  62 N10       30.01F
MARSHALL       MOSUNNY   79  65  62 N10       29.99F
REDWOOD FALLS  PTSUNNY   82  63  52 NW9       29.96S
OLIVIA         MOSUNNY   79  64  61 NW9       29.96S
PIPESTONE      MOSUNNY   81  61  50 N5        30.01F
WINDOM         SUNNY     81  64  57 NW12      29.98S
WORTHINGTON    PTSUNNY   79  69  71 NW7       30.00F
JACKSON        PTSUNNY   81  68  65 NW8       29.99S
TRACY          MOSUNNY   80  69  68 N7        29.99F
SLAYTON        MOSUNNY   79  65  62 NW7       30.01F
$$
MNZ065>067-074>077-082>085-091>093-272100-
   South Central Minnesota

CITY           SKY/WX    TMP DP  RH WIND       PRES   REMARKS
MANKATO        CLOUDY    79  66  65 SW8       29.94F
NEW ULM        SUNNY     79  68  69 W8        29.95S
ST JAMES       PTSUNNY   75  64  69 W8        29.97S
FAIRMONT       PTSUNNY   82  66  57 SW9       29.95F
GLENCOE        CLOUDY    79  72  79 W7        29.94S
FARIBAULT      PTSUNNY   81  70  69 S13G18    29.95F
OWATONNA       MOSUNNY   82  68  61 S13G18    29.95F
WASECA         CLOUDY    77  68  73 SW13      29.97F
ALBERT LEA     MOSUNNY   81  66  61 S12G17    29.97F
$$
MNZ078>079-086>088-094>096-272100-
   Southeast Minnesota

CITY           SKY/WX    TMP DP  RH WIND       PRES   REMARKS
ROCHESTER      PTSUNNY   80  69  69 S17       29.98F
RED WING       CLOUDY    84  66  54 S12G18    29.91F
STANTON        MOSUNNY   81  68  65 SW10G18   29.92F
DODGE CENTER   CLOUDY    81  66  61 SW17      29.97S
WINONA         CLOUDY    81  66  61 S3        29.94F
AUSTIN         CLOUDY    79  66  65 S14       29.97F
PRESTON        CLOUDY    78  66  67 SW10      29.99F
$$
ABBREVIATIONS USED IN REMARKS
   TC - TEMPERATURES IN CELSIUS
  WCI - WIND CHILL INDEX
   HX - HEAT INDEX
  VSB - VISIBILITY
$$



USA.gov is the U.S. government's official web portal to all federal, state and local government web resources and services.